Regional Weather Roundup
Issued by NWS

Home | Current Version | Previous Version | Graphics & Text | Print | Product List | Glossary On
Versions: 1 2 3 4 5 6 7 8 9 10 11 12 13 14 15 16 17 18 19 20 21 22 23 24 25 26 27 28 29 30 31 32 33 34 35 36 37 38 39 40 41 42 43 44 45 46 47 48 49 50
000
ASUS45 KCYS 010910
RWRWY

WYOMING REGIONAL WEATHER ROUNDUP
NATIONAL WEATHER SERVICE CHEYENNE WY
200 AM MST WED MAR 01 2017

NOTE:  "FAIR" INDICATES FEW OR NO CLOUDS BELOW 12,000 FEET
WITH NO SIGNIFICANT WEATHER AND/OR OBSTRUCTIONS TO VISIBILITY.

WYZ001-011000-
YELLOWSTONE NATIONAL PARK

CITY           SKY/WX    TMP DP  RH WIND       PRES   REMARKS
LK YELLOWSTONE   N/A      3   0  87 W6        30.04R WCI  -8
W YELLOWSTONE  NOT AVBL

$$
WYZ002>013-054>058-071-098>099-011000-
NORTHERN WYOMING

CITY           SKY/WX    TMP DP  RH WIND       PRES   REMARKS
JACKSON        CLOUDY    16  10  79 S16       30.12R WCI   0
CODY           FAIR      25   3  38 NW8G18    30.00R WCI  16
GREYBULL       FAIR      22  16  78 SW7       30.02R WCI  13
WORLAND        FAIR      20  16  84 S9        30.03R WCI   9
SHERIDAN       CLOUDY    26  10  50 NW8       30.00R WCI  18
BUFFALO        CLOUDY    24  11  57 NW21G31   29.98R WCI   9
GILLETTE       FAIR      22  15  75 NW13      29.96R WCI  10
HULETT         PTSUNNY   27  19  74 W9        29.95R WCI  17
NEWCASTLE      FAIR      27  19  74 NW14      29.95R WCI  15

$$
WYZ014>020-022>026-101>103-011000-
CENTRAL WYOMING

CITY           SKY/WX    TMP DP  RH WIND       PRES   REMARKS
BIG PINEY      FAIR       0  -5  79 N18       30.11R WCI -21
PINEDALE       FAIR       5   3  92 NW14      30.09R WCI -12
DUBOIS         FAIR      14   1  57 W38G46    29.93R HAZE    WCI  -9
LANDER         FAIR      17  -2  43 CALM      30.02R
RIVERTON       FAIR      11  -1  58 W13       30.03R WCI  -4
CASPER         FAIR      12   1  61 SW14      29.99R WCI  -3
DOUGLAS        FAIR      15   5  64 NW15      30.00R WCI   0

$$
WYZ021-027>030-104>119-011000-
SOUTHERN WYOMING

CITY           SKY/WX    TMP DP  RH WIND       PRES   REMARKS
EVANSTON       CLOUDY    17  10  74 SW17      30.18R WCI   1
FORT BRIDGER   CLOUDY    18  10  73 W16       30.20R WCI   3
ROCK SPRINGS   MIX PCPN  16   9  74 W28       30.13R WCI  -4
DIXON            N/A     19  10  68 SW14G20   30.19R WCI   6
RAWLINS        MOCLDY    12   6  77 SW21G32   30.06R WCI  -7
SARATOGA       FAIR      16  10  79 W25G33    30.06S WCI  -3
LARAMIE        FAIR      13   4  67 W15       29.99R WCI  -3
CHEYENNE       FAIR      20   6  55 W23G31    29.99R WCI   3
TORRINGTON     FAIR      22  11  62 NW14      30.01R WCI   9
PINE BLUFFS    FAIR      23  10  58 W23G31    30.00R WCI   7

$$



USA.gov is the U.S. government's official web portal to all federal, state and local government web resources and services.